Location: L�gaud
(45.7115°N, 1.7775°E)
Time: 12:49:01
(UTC+00:00)

SL-08 R/B - Pass Details

Date: 03 March 2021
Orbit: 949 x 1019 km, 82.9° (Epoch: 11 April)

Event Time Altitude Azimuth Distance (km) Brightness Sun altitude
Enters shadow 20:06:05 - 181° (S) 3,740 7.4 -25.6°
Exits shadow 20:11:54 33° 176° (S) 1,644 5.4 -26.5°
Maximum altitude 20:15:03 78° 95° (E) 1,044 4.4 -27.0°
Drops below altitude 10° 20:21:33 10° 11° (N) 2,817 7.0 -28.1°
Sets 20:24:06 0° 10° (N) 3,771 7.7 -28.5°
